When you browse on this site, cookies collect data to enhance your experience and personalize the content and advertising you see.
Visit our Privacy Policy to learn more. By continuing to use the site, you agree to this use of cookies and data.
  • In Spain
  • List of Countries
  • For 7 days
  • Water Temperature
  • Satellite Maps
  • Weather Map
  • Weather Widgets
  • user-avatar
    Login

    Hourly Weather Sari

    Today, 22 January, Tuesday

    Time Temperature Precipitation Wind Pressure Humidity
    00:00 +8°C° 0 mm 1 mps 761 mmHg 55%
    01:00 +8°C° 0 mm 1 mps 761 mmHg 54%
    02:00 +8°C° 0 mm 1 mps 761 mmHg 52%
    03:00 +8°C° 0 mm 1 mps 760 mmHg 51%
    04:00 +8°C° 0 mm 1 mps 760 mmHg 49%
    05:00 +8°C° 0 mm 1 mps 760 mmHg 47%
    06:00 +7°C° 0 mm 1 mps 760 mmHg 45%
    07:00 +7°C° 0 mm 1 mps 760 mmHg 43%
    08:00 +9°C° 0 mm 1 mps 760 mmHg 40%
    09:00 +10°C° 0 mm 1 mps 760 mmHg 37%
    10:00 +11°C° 0 mm 0 mps 760 mmHg 35%
    11:00 +13°C° 0 mm 1 mps 759 mmHg 34%
    12:00 +14°C° 0 mm 1 mps 759 mmHg 33%
    13:00 +16°C° 0 mm 1 mps 759 mmHg 32%
    14:00 +15°C° 0 mm 2 mps 759 mmHg 35%
    15:00 +15°C° 0 mm 2 mps 759 mmHg 39%
    16:00 +15°C° 0 mm 2 mps 758 mmHg 42%
    17:00 +13°C° 0 mm 1 mps 759 mmHg 48%
    18:00 +12°C° 0 mm 1 mps 759 mmHg 53%
    19:00 +9°C° 0 mm 0 mps 759 mmHg 59%
    20:00 +10°C° 0 mm 1 mps 759 mmHg 58%
    21:00 +10°C° 0 mm 1 mps 760 mmHg 57%
    22:00 +10°C° 0 mm 1 mps 760 mmHg 55%
    23:00 +10°C° 0 mm 1 mps 760 mmHg 54%

    Tomorrow, 23 January, Wednesday

    Time Temperature Precipitation Wind Pressure Humidity
    00:00 +9°C° 0 mm 1 mps 760 mmHg 53%
    01:00 +9°C° 0 mm 1 mps 760 mmHg 51%
    02:00 +9°C° 0 mm 1 mps 760 mmHg 50%
    03:00 +9°C° 0 mm 1 mps 761 mmHg 49%
    04:00 +9°C° 0 mm 1 mps 761 mmHg 47%
    05:00 +9°C° 0 mm 1 mps 761 mmHg 47%
    06:00 +8°C° 0 mm 1 mps 762 mmHg 46%
    07:00 +8°C° 0 mm 1 mps 762 mmHg 45%
    08:00 +10°C° 0 mm 1 mps 762 mmHg 42%
    09:00 +11°C° 0 mm 1 mps 763 mmHg 40%
    10:00 +12°C° 0 mm 1 mps 763 mmHg 37%
    11:00 +13°C° 0 mm 1 mps 763 mmHg 37%
    12:00 +14°C° 0 mm 1 mps 763 mmHg 36%
    13:00 +15°C° 0 mm 1 mps 763 mmHg 35%
    14:00 +15°C° 0 mm 2 mps 763 mmHg 38%
    15:00 +15°C° 0 mm 2 mps 763 mmHg 41%
    16:00 +14°C° 0 mm 2 mps 763 mmHg 44%
    17:00 +13°C° 0 mm 2 mps 763 mmHg 51%
    18:00 +12°C° 0 mm 2 mps 763 mmHg 57%
    19:00 +9°C° 0 mm 2 mps 764 mmHg 64%
    20:00 +9°C° 0 mm 2 mps 764 mmHg 63%
    21:00 +9°C° 0 mm 2 mps 764 mmHg 63%
    22:00 +9°C° 0 mm 2 mps 764 mmHg 62%
    23:00 +9°C° 0 mm 1 mps 764 mmHg 62%

    Day after tomorrow, 24 January, Thursday

    Time Temperature Precipitation Wind Pressure Humidity
    00:00 +9°C° 0 mm 1 mps 764 mmHg 61%
    01:00 +9°C° 0 mm 1 mps 764 mmHg 61%
    02:00 +9°C° 0 mm 1 mps 764 mmHg 59%
    03:00 +9°C° 0 mm 1 mps 764 mmHg 56%
    04:00 +9°C° 0 mm 1 mps 764 mmHg 54%
    05:00 +9°C° 0 mm 1 mps 764 mmHg 52%
    06:00 +7°C° 0 mm 2 mps 764 mmHg 50%
    07:00 +7°C° 0 mm 2 mps 764 mmHg 47%
    08:00 +9°C° 0 mm 2 mps 764 mmHg 44%
    09:00 +12°C° 0 mm 1 mps 764 mmHg 41%
    10:00 +13°C° 0 mm 1 mps 764 mmHg 38%
    11:00 +15°C° 0 mm 2 mps 764 mmHg 37%
    12:00 +16°C° 0 mm 2 mps 763 mmHg 36%
    13:00 +17°C° 0 mm 3 mps 762 mmHg 35%
    14:00 +17°C° 0 mm 3 mps 762 mmHg 37%
    15:00 +17°C° 0 mm 3 mps 762 mmHg 39%
    16:00 +17°C° 0 mm 3 mps 762 mmHg 41%
    17:00 +15°C° 0 mm 2 mps 762 mmHg 45%
    18:00 +14°C° 0 mm 2 mps 762 mmHg 49%
    19:00 +12°C° 0 mm 1 mps 762 mmHg 52%
    20:00 +12°C° 0 mm 1 mps 762 mmHg 51%
    21:00 +12°C° 0 mm 1 mps 762 mmHg 50%
    22:00 +12°C° 0 mm 1 mps 762 mmHg 48%
    23:00 +11°C° 0 mm 1 mps 762 mmHg 47%

    25 January, Friday

    Time Temperature Precipitation Wind Pressure Humidity
    00:00 +10°C° 0 mm 2 mps 762 mmHg 45%
    01:00 +10°C° 0 mm 2 mps 761 mmHg 44%
    02:00 +10°C° 0 mm 2 mps 761 mmHg 43%
    03:00 +10°C° 0 mm 2 mps 760 mmHg 42%
    04:00 +10°C° 0 mm 2 mps 760 mmHg 41%
    05:00 +10°C° 0 mm 2 mps 760 mmHg 41%
    06:00 +9°C° 0 mm 2 mps 760 mmHg 41%
    07:00 +9°C° 0 mm 2 mps 760 mmHg 40%
    08:00 +12°C° 0 mm 2 mps 760 mmHg 39%
    09:00 +13°C° 0 mm 2 mps 760 mmHg 38%
    10:00 +15°C° 0 mm 1 mps 759 mmHg 37%
    11:00 +16°C° 0 mm 1 mps 759 mmHg 35%
    12:00 +19°C° 0 mm 1 mps 759 mmHg 33%
    13:00 +20°C° 0 mm 1 mps 758 mmHg 31%
    14:00 +20°C° 0 mm 1 mps 758 mmHg 34%
    15:00 +19°C° 0 mm 1 mps 758 mmHg 38%
    16:00 +19°C° 0 mm 1 mps 758 mmHg 42%
    17:00 +18°C° 0 mm 1 mps 758 mmHg 41%
    18:00 +16°C° 0 mm 2 mps 758 mmHg 40%
    19:00 +15°C° 0 mm 2 mps 758 mmHg 40%
    20:00 +14°C° 0 mm 3 mps 758 mmHg 38%
    21:00 +14°C° 0 mm 3 mps 758 mmHg 37%
    22:00 +13°C° 0 mm 3 mps 758 mmHg 36%
    23:00 +14°C° 0 mm 2 mps 758 mmHg 36%

    26 January, Saturday

    Time Temperature Precipitation Wind Pressure Humidity
    00:00 +14°C° 0 mm 2 mps 758 mmHg 36%
    01:00 +14°C° 0 mm 2 mps 758 mmHg 36%
    02:00 +14°C° 0 mm 2 mps 758 mmHg 37%
    03:00 +14°C° 0 mm 2 mps 758 mmHg 38%
    04:00 +13°C° 0 mm 2 mps 758 mmHg 38%
    05:00 +13°C° 0 mm 2 mps 758 mmHg 38%
    06:00 +13°C° 0 mm 2 mps 758 mmHg 39%
    07:00 +13°C° 0 mm 2 mps 758 mmHg 39%
    08:00 +14°C° 0 mm 2 mps 758 mmHg 38%
    09:00 +16°C° 0 mm 1 mps 758 mmHg 37%
    10:00 +19°C° 0 mm 1 mps 758 mmHg 36%
    11:00 +20°C° 0 mm 1 mps 758 mmHg 34%
    12:00 +20°C° 0 mm 2 mps 758 mmHg 32%
    13:00 +23°C° 0 mm 2 mps 757 mmHg 31%
    14:00 +21°C° 0 mm 2 mps 757 mmHg 32%
    15:00 +21°C° 0 mm 2 mps 757 mmHg 34%
    16:00 +21°C° 0 mm 2 mps 756 mmHg 36%
    17:00 +20°C° 0 mm 2 mps 757 mmHg 37%
    18:00 +19°C° 0 mm 1 mps 757 mmHg 39%
    19:00 +18°C° 0 mm 1 mps 757 mmHg 40%
    20:00 +17°C° 0 mm 2 mps 757 mmHg 39%
    21:00 +16°C° 0 mm 2 mps 757 mmHg 38%
    22:00 +16°C° 0 mm 3 mps 757 mmHg 36%
    23:00 +16°C° 0 mm 3 mps 757 mmHg 34%

    27 January, Sunday

    Time Temperature Precipitation Wind Pressure Humidity
    00:00 +16°C° 0 mm 3 mps 757 mmHg 32%
    01:00 +16°C° 0 mm 3 mps 756 mmHg 29%
    02:00 +16°C° 0 mm 3 mps 756 mmHg 28%
    03:00 +16°C° 0 mm 3 mps 756 mmHg 27%
    04:00 +16°C° 0 mm 3 mps 756 mmHg 27%
    05:00 +16°C° 0 mm 3 mps 755 mmHg 27%
    06:00 +17°C° 0 mm 3 mps 755 mmHg 28%
    07:00 +17°C° 0 mm 3 mps 755 mmHg 29%
    08:00 +18°C° 0 mm 3 mps 756 mmHg 31%
    09:00 +19°C° 0 mm 2 mps 756 mmHg 33%
    10:00 +21°C° 0 mm 2 mps 756 mmHg 35%
    11:00 +24°C° 0 mm 2 mps 756 mmHg 32%
    12:00 +25°C° 0 mm 2 mps 755 mmHg 29%
    13:00 +27°C° 0 mm 1 mps 755 mmHg 27%
    14:00 +27°C° 0 mm 2 mps 755 mmHg 28%
    15:00 +26°C° 0 mm 2 mps 755 mmHg 30%
    16:00 +25°C° 0 mm 2 mps 754 mmHg 31%
    17:00 +23°C° 0 mm 1 mps 754 mmHg 33%
    18:00 +22°C° 0 mm 1 mps 755 mmHg 35%
    19:00 +20°C° 0 mm 1 mps 755 mmHg 37%
    20:00 +19°C° 0 mm 1 mps 755 mmHg 38%
    21:00 +18°C° 0 mm 2 mps 755 mmHg 39%
    22:00 +18°C° 0 mm 2 mps 755 mmHg 39%
    23:00 +18°C° 0 mm 2 mps 755 mmHg 40%
    Show more